Measurement date,Total daily rainfall,Mean daily air temperature
Date ,Rainfall,Air temperature
Units: Year month day,Units: millimetre,Units: degree Celsius
2010-03-16,0.2,4.2
2010-03-17,0,9.8
2010-03-18,1.4,11.5
2010-03-19,5.8,9.0
2010-03-20,5.4,9.9
2010-03-21,0,8.1
2010-03-22,2.8,8.4
2010-03-23,4.2,6.2
2010-03-24,2.6,9.5
2010-03-25,6.4,8.4
2010-03-26,3.2,8.8
2010-03-27,0.6,8.4
2010-03-28,3.2,8.6
2010-03-29,3,10.1
2010-03-30,8.2,6.4
2010-03-31,11,3.4
2010-04-01,3.4,5.2
2010-04-02,5.4,7.0
2010-04-03,6.6,5.2
2010-04-04,0.8,6.2
2010-04-05,0,9.4
2010-04-06,2.2,9.5
2010-04-07,0,7.8
2010-04-08,0.2,7.8
2010-04-09,0,9.4
2010-04-10,0,10.5
2010-04-11,0,9.1
2010-04-12,0,8.1
2010-04-13,0,8.1
2010-04-14,0.2,6.7
2010-04-15,0,6.6
2010-04-16,0,7.4
2010-04-17,0.2,7.0
2010-04-18,0.2,8.2
2010-04-19,0,7.5
2010-04-20,0.2,7.1
2010-04-21,0,6.2
2010-04-22,0,6.8
2010-04-23,0,7.8
2010-04-24,0.2,9.9
2010-04-25,1,12.3
2010-04-26,0,11.7
2010-04-27,0.2,11.2
2010-04-28,0,13.8
2010-04-29,11.6,10.7
2010-04-30,0.4,10.5
2010-05-01,9.6,9.8
2010-05-02,2.6,8.0
2010-05-03,0,7.3
2010-05-04,0.2,7.5
2010-05-05,0,9.6
2010-05-06,4,10.6
2010-05-07,0.8,8.1
2010-05-08,1.4,7.2
2010-05-09,0.2,7.7
2010-05-10,0,9.0
2010-05-11,0.4,7.4
2010-05-12,0,6.3
2010-05-13,0,6.8
2010-05-14,9.8,7.8
2010-05-15,0.2,9.2
2010-05-16,3.4,9.7
2010-05-17,0.2,9.9
2010-05-18,0,11.2
2010-05-19,1.4,12.5
2010-05-20,0.2,15.3
2010-05-21,0,17.0
2010-05-22,0.2,16.4
2010-05-23,0,16.0
2010-05-24,0,15.9
2010-05-25,0,14.9
2010-05-26,1,13.6
2010-05-27,0.4,11.0
2010-05-28,0.2,12.0
2010-05-29,0.8,12.8
2010-05-30,0,13.0
2010-05-31,0,13.4
2010-06-01,13.4,12.1
2010-06-02,0.2,13.7
2010-06-03,0,13.8
2010-06-04,0,16.6
2010-06-05,0.2,14.0
2010-06-06,0,14.4
2010-06-07,3,12.6
2010-06-08,1.6,14.4
2010-06-09,0.8,14.5
2010-06-10,0.8,14.4
2010-06-11,0.4,15.0
2010-06-12,0.2,13.3
2010-06-13,0.2,13.5
2010-06-14,0.2,13.8
2010-06-15,0,13.3
2010-06-16,0,13.5
2010-06-17,0,14.9
2010-06-18,0,15.7
2010-06-19,0.2,14.1
2010-06-20,0,13.3
2010-06-21,0,15.5
2010-06-22,0,15.3
2010-06-23,0,15.6
2010-06-24,0,15.9
2010-06-25,0,17.2
2010-06-26,0,18.0
2010-06-27,0,16.8
2010-06-28,0.2,17.9
2010-06-29,3.6,18.1
2010-06-30,0,17.8
2010-07-01,2.8,17.3
2010-07-02,3.2,16.5
2010-07-03,0.4,15.7
2010-07-04,1.4,15.6
2010-07-05,0,14.8
2010-07-06,0.2,15.6
2010-07-07,0,18.1
2010-07-08,0,17.7
2010-07-09,0,17.6
2010-07-10,0.2,19.1
2010-07-11,2,16.8
2010-07-12,0.8,15.8
2010-07-13,1.8,16.3
2010-07-14,6,16.7
2010-07-15,3.8,15.4
2010-07-16,1.8,15.1
2010-07-17,0.8,14.4
2010-07-18,0.2,16.9
2010-07-19,0.2,18.3
2010-07-20,0.2,16.7
2010-07-21,0.2,15.1
2010-07-22,0.2,13.9
2010-07-23,0.2,14.5
2010-07-24,0,15.6
2010-07-25,0.2,17.6
2010-07-26,0,18.4
2010-07-27,0.2,17.4
2010-07-28,0,16.1
2010-07-29,0,15.6
2010-07-30,0,16.6
2010-07-31,0,16.3
2010-08-01,0,15.7
2010-08-02,14.8,15.6
2010-08-03,0.4,16.0
2010-08-04,6,15.1
2010-08-05,0.2,14.8
2010-08-06,0.4,17.1
2010-08-07,4.8,15.6
2010-08-08,0.2,14.7
2010-08-09,1.2,15.2
2010-08-10,6.8,15.1
2010-08-11,0.2,14.9
2010-08-12,0,14.3
2010-08-13,0.2,14.7
2010-08-14,3.8,14.6
2010-08-15,0.2,15.5
2010-08-16,0.2,16.3
2010-08-17,0.8,15.5
2010-08-18,0.6,14.8
2010-08-19,5.8,15.4
2010-08-20,2,18.8
2010-08-21,1.8,19.0
2010-08-22,14.6,17.0
2010-08-23,5,15.4
2010-08-24,3.2,14.0
2010-08-25,20.2,14.0
2010-08-26,1.8,16.0
2010-08-27,0.8,13.9
2010-08-28,0.2,13.4
2010-08-29,3.6,13.1
2010-08-30,0,11.7
2010-08-31,0,12.0
2010-09-01,0.2,13.3
2010-09-02,0,13.3
2010-09-03,0.2,14.4
2010-09-04,0,15.2
2010-09-05,5.6,16.1
2010-09-06,24.6,15.4
2010-09-07,2.8,13.9
2010-09-08,1,13.3
2010-09-09,0.2,15.4
2010-09-10,0,17.8
2010-09-11,2.8,16.5
2010-09-12,0.4,13.4
2010-09-13,0,14.9
2010-09-14,4.8,15.7
2010-09-15,0.2,12.9
2010-09-16,0.2,12.5
2010-09-17,0.8,11.1
2010-09-18,0.2,9.8
2010-09-19,0,14.1
2010-09-20,0.2,15.4
2010-09-21,0.2,13.8
2010-09-22,3,15.2
2010-09-23,9.6,14.4
2010-09-24,1.4,12.1
2010-09-25,0,8.4
2010-09-26,0.2,7.3
2010-09-27,0,10.5
2010-09-28,1.4,12.9
2010-09-29,3.8,13.7
2010-09-30,2,11.7
2010-10-01,11.4,14.0
2010-10-02,0.6,11.9
2010-10-03,18,12.8
2010-10-04,0,11.7
2010-10-05,1.2,14.5
2010-10-06,4.2,13.0
2010-10-07,0.4,12.6
2010-10-08,0,16.7
2010-10-09,0.2,16.0
2010-10-10,0,14.7
2010-10-11,0,11.4
2010-10-12,0.2,9.2
2010-10-13,0,6.9
2010-10-14,0.2,6.0
2010-10-15,0,9.7
2010-10-16,0,8.9
2010-10-17,0.2,6.5
2010-10-18,1,11.3
2010-10-19,2.4,10.0
2010-10-20,0.8,6.8
2010-10-21,1,6.5
2010-10-22,2,9.3
2010-10-23,12.6,8.7
2010-10-24,0.4,5.5
2010-10-25,0.2,3.5
2010-10-26,5,11.4
2010-10-27,2.2,12.7
2010-10-28,1.4,13.1
2010-10-29,0,12.9
2010-10-30,1.6,10.9
2010-10-31,11,10.8
2010-11-01,0.6,9.7
2010-11-02,2.6,12.8
2010-11-03,2.6,13.9
2010-11-04,0.2,14.4
2010-11-05,9,14.3
2010-11-06,2.6,9.2
2010-11-07,3.8,5.2
2010-11-08,7,7.4
2010-11-09,1.4,6.9
2010-11-10,0,4.4
2010-11-11,17,10.9
2010-11-12,11,10.9
2010-11-13,2.2,8.4
2010-11-14,9,4.9
2010-11-15,0,4.2
2010-11-16,0.4,5.7
2010-11-17,20.8,8.6
2010-11-18,2,8.2
2010-11-19,2.8,7.6
2010-11-20,12.8,8.4
2010-11-21,0.2,5.3
2010-11-22,0.8,5.0
2010-11-23,0,4.9
2010-11-24,8.4,3.5
2010-11-25,0.2,0.5
2010-11-26,2,0.8
2010-11-27,0,-0.9
2010-11-28,0,-4.8
2010-11-29,0,-1.7
2010-11-30,0.4,-0.9
2010-12-01,0,-1.5
2010-12-02,0,-1.1
2010-12-03,3.6,-2.0
2010-12-04,5.8,5.2
2010-12-05,0.8,1.9
2010-12-06,0,-2.9
2010-12-07,0,-5.4
2010-12-08,0,-1.1
2010-12-09,0.4,0.7
2010-12-10,0,6.0
2010-12-11,0,5.7
2010-12-12,0.2,3.1
2010-12-13,0,0.6
2010-12-14,0.2,0.0
2010-12-15,0.2,2.8
2010-12-16,4.6,4.7
2010-12-17,0.6,-0.1
2010-12-18,0.6,-1.8
2010-12-19,0,-4.2
2010-12-20,0,-1.9
2010-12-21,0,-3.1
2010-12-22,0,-4.6
2010-12-23,0,-1.5
2010-12-24,0.2,-3.1
2010-12-25,0,-7.3
2010-12-26,0,-4.1
2010-12-27,2.2,3.7
2010-12-28,0,8.6
2010-12-29,0.4,8.2
2010-12-30,0.4,6.2
2010-12-31,0,4.4
2011-01-01,0,4.1
2011-01-02,2.4,2.0
2011-01-03,0.2,0.6
2011-01-04,0.8,3.6
2011-01-05,1,6.1
2011-01-06,11.4,3.5
2011-01-07,16.2,7.2
2011-01-08,4.2,5.3
2011-01-09,1.6,3.4
2011-01-10,15.6,7.4
2011-01-11,4.2,6.5
2011-01-12,23.6,11.2
2011-01-13,14,12.1
2011-01-14,1,10.3
2011-01-15,1.6,10.2
2011-01-16,6,10.5
2011-01-17,10.2,7.1
2011-01-18,0.4,4.2
2011-01-19,0.2,0.5
2011-01-20,0.2,0.2
2011-01-21,0.2,-1.5
2011-01-22,0,-0.1
2011-01-23,0.2,4.9
2011-01-24,0,4.3
2011-01-25,3.2,6.1
2011-01-26,0,5.7
2011-01-27,0,0.8
2011-01-28,0,-1.1
2011-01-29,0,-1.6
2011-01-30,0,-1.5
2011-01-31,0.2,-2.7
2011-02-01,0,6.4
2011-02-02,4.8,7.3
2011-02-03,0.2,7.4
2011-02-04,0.4,10.5
2011-02-05,2.2,10.8
2011-02-06,0.4,10.0
2011-02-07,2.4,8.3
2011-02-08,0.2,3.9
2011-02-09,0.2,9.1
2011-02-10,4.8,10.0
2011-02-11,1,10.0
2011-02-12,0.4,7.0
2011-02-13,10,7.5
2011-02-14,0,4.4
2011-02-15,11,5.9
2011-02-16,3.6,5.2
2011-02-17,1,6.6
2011-02-18,1.4,6.9
2011-02-19,3,8.1
2011-02-20,0.6,5.2
2011-02-21,1.8,7.5
2011-02-22,0,7.6
2011-02-23,4.6,10.1
2011-02-24,0.2,10.3
2011-02-25,2.6,10.9
2011-02-26,4.4,7.8
2011-02-27,0.8,5.6
2011-02-28,0,4.3
2011-03-01,0,3.7
2011-03-02,0,3.2
2011-03-03,0.2,1.1
2011-03-04,0.2,1.1
2011-03-05,0,0.7
2011-03-06,0.2,2.6
2011-03-07,0,3.0
2011-03-08,0.2,2.7
2011-03-09,0.8,7.2
2011-03-10,0,8.9
2011-03-11,0,7.8
2011-03-12,0.2,8.3
2011-03-13,4.2,5.4
2011-03-14,0,4.0
2011-03-15,0,10.0
2011-03-16,0,9.3
2011-03-17,0.2,7.8
2011-03-18,10.8,5.5
2011-03-19,0.2,4.7
2011-03-20,0,8.7
2011-03-21,0,10.2
2011-03-22,0.2,8.4
2011-03-23,0.2,8.5
2011-03-24,0,8.4
2011-03-25,0,10.6
2011-03-26,0,9.7
2011-03-27,0,9.1
2011-03-28,0.2,8.5
2011-03-29,1.4,8.7
2011-03-30,2.8,10.4
2011-03-31,3,12.7
2011-04-01,0,12.6
2011-04-02,0.2,11.9
2011-04-03,2.6,9.2
2011-04-04,0,8.4
2011-04-05,2,11.6
2011-04-06,0,13.6
2011-04-07,0,12.0
2011-04-08,0.2,13.2
2011-04-09,0,11.2
2011-04-10,0,12.1
2011-04-11,0.2,10.1
2011-04-12,0,7.6
2011-04-13,1.8,7.2
2011-04-14,0.2,10.2
2011-04-15,0.2,8.6
2011-04-16,0,9.9
2011-04-17,0.2,10.0
2011-04-18,0,9.6
2011-04-19,0,12.8
2011-04-20,0,14.1
2011-04-21,0,14.4
2011-04-22,0.2,14.7
2011-04-23,0,12.6
2011-04-24,0,11.3
2011-04-25,0,13.3
2011-04-26,0,12.1
2011-04-27,0.2,11.2
2011-04-28,0.2,9.7
2011-04-29,0,10.7
2011-04-30,11.6,12.5
2011-05-01,1.4,12.7
2011-05-02,0.2,11.3
2011-05-03,0,8.7
2011-05-04,0,9.3
2011-05-05,1.2,11.3
2011-05-06,6,14.3
2011-05-07,1.2,13.6
2011-05-08,3.4,13.1
2011-05-09,2.8,13.2
2011-05-10,0.6,12.8
2011-05-11,0.2,12.0
2011-05-12,0.2,10.4
2011-05-13,0.8,10.0
2011-05-14,0.2,10.0
2011-05-15,0,10.8
2011-05-16,0,11.8
2011-05-17,0.4,12.1
2011-05-18,1.2,12.0
2011-05-19,0.2,9.7
2011-05-20,0,11.4
2011-05-21,0.4,11.9
2011-05-22,3.4,11.5
2011-05-23,2,11.2
2011-05-24,0.2,10.7
2011-05-25,0,11.3
2011-05-26,5.4,10.5
2011-05-27,0,9.9
2011-05-28,1.8,11.3
2011-05-29,0,13.6
2011-05-30,4.8,11.2
2011-05-31,0.2,9.8
2011-06-01,0,12.3
2011-06-02,0,16.6
2011-06-03,0,17.9
2011-06-04,0,17.3
2011-06-05,0.4,13.3
2011-06-06,0.2,11.8
2011-06-07,3.2,11.3
2011-06-08,2,11.2
2011-06-09,4.8,10.7
2011-06-10,4.8,8.8
2011-06-11,4.4,9.6
2011-06-12,13.6,12.6
2011-06-13,0.4,13.3
2011-06-14,0,13.4
